TimeEST,TemperatureF,Dew PointF,Humidity,Sea Level PressureIn,VisibilityMPH,Wind Direction,Wind SpeedMPH,Gust SpeedMPH,PrecipitationIn,Events,Conditions,WindDirDegrees,DateUTC
12:58 AM,30.9,30.7,99,30.26,3.0,NE,2.3,-,N/A,,Overcast,50,2014-01-11 05:58:00
1:30 AM,32.0,32.0,100,30.23,2.0,Calm,Calm,-,N/A,,Overcast,0,2014-01-11 06:30:00
1:44 AM,32.0,32.0,100,30.23,2.0,NNE,2.3,-,N/A,,Overcast,20,2014-01-11 06:44:00
1:58 AM,31.6,31.5,99,30.25,2.0,Calm,Calm,-,N/A,,Overcast,0,2014-01-11 06:58:00
2:28 AM,32.0,32.0,100,30.22,1.2,Calm,Calm,-,N/A,,Light Freezing Drizzle,0,2014-01-11 07:28:00
2:43 AM,32.0,32.0,100,30.21,0.8,Calm,Calm,-,N/A,,Light Freezing Drizzle,0,2014-01-11 07:43:00
2:58 AM,31.8,31.6,99,30.23,0.5,NNW,3.5,-,0.00,Fog,Light Freezing Drizzle,340,2014-01-11 07:58:00
3:08 AM,32.0,32.0,100,30.20,0.4,North,2.3,-,N/A,Fog-Rain,Light Freezing Rain,350,2014-01-11 08:08:00
3:58 AM,32.0,32.0,100,30.18,0.4,ENE,3.5,-,0.02,Fog-Rain,Light Freezing Rain,70,2014-01-11 08:58:00
4:43 AM,32.0,32.0,100,30.13,0.5,NNE,1.2,-,N/A,Fog-Rain,Light Rain,20,2014-01-11 09:43:00
4:58 AM,32.7,32.7,100,30.14,0.5,Calm,Calm,-,0.02,Fog-Rain,Light Rain,0,2014-01-11 09:58:00
5:28 AM,32.0,32.0,100,30.10,0.4,ENE,1.2,-,N/A,Fog-Rain,Light Rain,60,2014-01-11 10:28:00
5:58 AM,32.7,32.5,99,30.10,0.2,NE,2.3,-,0.01,Fog-Rain,Light Rain,50,2014-01-11 10:58:00
6:22 AM,32.0,32.0,100,30.07,0.1,NW,2.3,-,N/A,Fog-Rain,Light Rain,320,2014-01-11 11:22:00
6:58 AM,32.5,32.5,100,30.06,0.1,Calm,Calm,-,0.04,Fog-Rain,Light Rain,0,2014-01-11 11:58:00
7:34 AM,32.0,32.0,100,30.01,0.1,NW,5.8,-,N/A,Fog,Fog,320,2014-01-11 12:34:00
7:58 AM,32.5,32.5,100,30.01,0.1,Calm,Calm,-,0.00,Fog,Fog,0,2014-01-11 12:58:00
8:58 AM,33.3,33.3,100,29.97,0.1,Calm,Calm,-,0.00,Fog,Light Drizzle,0,2014-01-11 13:58:00
9:10 AM,32.0,32.0,100,29.94,0.1,North,1.2,-,N/A,Fog,Fog,10,2014-01-11 14:10:00
9:58 AM,33.8,33.8,100,29.91,0.1,SE,3.5,-,0.00,Fog,Fog,130,2014-01-11 14:58:00
10:22 AM,37.4,37.4,100,29.88,0.1,Variable,3.5,-,N/A,Fog-Rain,Light Rain,0,2014-01-11 15:22:00
10:40 AM,39.2,39.2,100,29.85,0.1,South,9.2,-,N/A,Fog,Fog,170,2014-01-11 15:40:00
10:58 AM,44.8,44.8,100,29.85,0.1,South,8.1,-,0.00,Fog,Fog,180,2014-01-11 15:58:00
11:42 AM,46.4,46.4,100,29.78,0.1,SSE,11.5,-,N/A,Fog-Rain,Light Rain,160,2014-01-11 16:42:00
11:58 AM,46.2,46.2,100,29.78,0.1,SSE,10.4,-,0.00,Fog,Fog,150,2014-01-11 16:58:00
12:58 PM,46.6,46.6,100,29.70,0.2,SE,12.7,-,N/A,Fog,Fog,140,2014-01-11 17:58:00
1:19 PM,48.2,48.2,100,29.65,3.0,SSE,10.4,-,N/A,,Overcast,160,2014-01-11 18:19:00
1:32 PM,50.0,50.0,100,29.64,4.0,SSE,11.5,-,N/A,,Overcast,160,2014-01-11 18:32:00
1:58 PM,51.6,51.6,100,29.63,5.0,South,10.4,-,0.00,Rain,Light Rain,180,2014-01-11 18:58:00
2:43 PM,53.6,53.6,100,29.58,5.0,South,12.7,-,N/A,Rain,Light Rain,170,2014-01-11 19:43:00
2:58 PM,52.9,52.9,100,29.57,6.0,South,15.0,24.2,0.00,,Overcast,170,2014-01-11 19:58:00
3:28 PM,51.8,51.8,100,29.52,4.0,SSE,15.0,-,N/A,,Light Drizzle,150,2014-01-11 20:28:00
3:58 PM,51.1,50.9,99,29.52,3.0,SSE,16.1,-,0.01,,Overcast,150,2014-01-11 20:58:00
4:33 PM,51.8,51.8,100,29.47,4.0,SSE,18.4,26.5,N/A,Rain,Light Rain,160,2014-01-11 21:33:00
4:45 PM,50.0,50.0,100,29.46,1.5,SSE,17.3,24.2,N/A,Rain,Light Rain,160,2014-01-11 21:45:00
4:58 PM,50.4,50.4,100,29.45,1.5,SSE,15.0,-,0.01,Rain,Light Rain,160,2014-01-11 21:58:00
5:43 PM,50.0,50.0,100,29.41,1.0,SSE,11.5,-,N/A,Rain,Light Rain,160,2014-01-11 22:43:00
5:58 PM,49.5,49.5,100,29.39,1.0,SE,12.7,-,0.07,Rain,Light Rain,140,2014-01-11 22:58:00
6:09 PM,50.0,50.0,100,29.37,0.2,SSE,11.5,-,N/A,Fog-Rain,Light Rain,150,2014-01-11 23:09:00
6:28 PM,50.0,50.0,100,29.35,0.2,SSE,11.5,-,N/A,Fog,Fog,150,2014-01-11 23:28:00
6:58 PM,49.5,49.5,100,29.34,0.1,SSE,11.5,-,0.00,Fog,Fog,150,2014-01-11 23:58:00
7:45 PM,48.2,48.2,100,29.31,0.4,South,5.8,-,N/A,Fog-Rain,Light Rain,170,2014-01-12 00:45:00
7:58 PM,49.5,49.5,100,29.32,0.5,South,4.6,-,0.01,Fog-Rain,Light Rain,170,2014-01-12 00:58:00
8:09 PM,50.0,50.0,100,29.31,1.2,South,8.1,-,N/A,Rain,Light Rain,170,2014-01-12 01:09:00
8:22 PM,50.0,50.0,100,29.30,4.0,South,6.9,-,N/A,Rain,Light Rain,190,2014-01-12 01:22:00
8:58 PM,55.2,55.2,100,29.31,6.0,SW,10.4,-,0.04,Rain,Light Rain,220,2014-01-12 01:58:00
9:28 PM,55.4,55.4,100,29.29,10.0,SW,9.2,-,N/A,Rain,Light Rain,230,2014-01-12 02:28:00
9:58 PM,54.5,54.5,100,29.29,10.0,SW,9.2,-,0.04,Rain,Light Rain,220,2014-01-12 02:58:00
10:58 PM,52.3,52.3,100,29.24,10.0,SSE,11.5,-,0.01,Rain,Light Rain,160,2014-01-12 03:58:00
11:27 PM,51.8,51.8,100,29.23,10.0,South,10.4,-,N/A,,Overcast,180,2014-01-12 04:27:00
11:58 PM,52.0,52.0,100,29.23,10.0,South,11.5,-,0.00,,Overcast,170,2014-01-12 04:58:00